Wind_Speed
14 15 16 16 17 20 23 27 30 33 36 40 42 46 49 52 55 58 61 63 63 61 58 56 55 54 54 54 54 53 53 51 49 47 44 41 39 39 39 41 45 52 59 65
15 17 17 16 19 23 26 28 30 33 37 40 44 47 50 53 57 59 60 60 58 56 54 53 53 53 53 53 53 53 53 52 51 50 47 45 43 42 41 40 39 40 44 50
16 18 19 19 22 26 29 31 34 38 41 44 47 49 53 57 60 61 60 57 54 53 52 52 52 53 54 54 54 54 54 53 52 52 50 48 47 45 42 41 39 38 37 39
20 22 22 24 27 30 34 36 38 41 45 48 51 53 55 58 60 58 55 53 51 51 52 53 54 56 56 57 57 56 55 55 54 53 51 50 49 48 46 44 42 41 39 37
26 27 28 29 31 34 37 39 42 44 47 49 52 52 53 57 57 54 52 51 51 53 55 56 58 59 59 59 58 57 55 54 53 52 50 49 48 46 45 44 43 42 40 38
27 28 30 32 34 37 39 41 44 46 49 51 55 56 57 57 55 51 50 51 52 55 57 58 60 61 61 59 58 56 54 52 51 51 49 47 45 44 42 42 41 41 39 38
26 28 31 34 36 38 39 43 45 49 52 56 57 59 59 56 51 49 49 51 53 56 58 60 61 61 60 58 56 54 52 49 48 48 46 45 43 41 39 39 38 38 38 37
28 30 32 35 37 39 43 45 48 51 54 55 56 58 57 53 50 48 49 52 55 57 59 60 61 60 58 56 52 48 45 43 42 41 40 40 38 37 37 36 35 35 35 35
28 30 33 35 39 43 45 47 49 51 53 55 56 57 55 51 48 48 50 53 56 59 60 60 59 58 56 52 46 42 38 35 33 31 31 32 32 32 32 32 32 32 32 31
27 29 33 36 39 42 44 46 48 51 53 54 55 56 54 50 47 48 51 54 57 59 60 58 56 55 53 48 43 38 32 27 24 22 21 22 24 26 26 26 27 28 29 29
26 29 32 35 37 40 43 45 47 49 52 54 55 55 53 49 47 47 51 54 57 59 59 57 55 53 50 45 40 34 27 21 17 14 13 13 15 17 19 20 22 23 24 26
28 30 32 35 37 40 43 46 48 50 51 53 55 55 53 48 46 47 50 54 56 58 58 56 54 52 49 46 40 33 26 20 14 8 5 6 8 11 13 15 17 18 20 22
29 31 33 36 38 41 44 46 48 51 52 53 54 55 52 48 45 46 49 52 55 56 56 55 52 50 48 45 39 34 28 22 16 10 6 2 2 5 7 10 12 14 16 17
29 31 33 35 38 41 43 46 48 50 52 53 53 53 51 47 45 45 47 50 52 54 54 53 51 48 46 43 39 34 29 24 20 16 12 8 6 4 5 7 9 11 12 14
31 32 33 35 38 41 43 46 47 49 50 51 52 52 51 47 44 44 45 48 50 51 51 51 50 47 45 42 38 34 30 26 22 19 16 14 11 9 7 5 5 6 8 10
32 33 34 36 38 41 43 45 47 49 50 51 51 52 51 47 44 43 43 44 46 48 49 49 48 46 43 41 38 35 31 27 23 20 18 16 14 11 9 8 6 5 5 7
33 33 34 35 38 40 43 46 47 49 51 51 51 51 50 47 43 41 41 41 43 44 46 47 47 45 43 40 37 35 31 28 24 21 18 16 14 12 10 9 8 7 7 8
32 33 35 36 38 41 43 45 47 49 50 50 50 50 50 47 42 39 38 38 39 40 42 43 44 43 41 39 36 33 31 28 25 22 19 17 15 13 12 11 11 10 10 12
32 34 36 37 39 41 44 46 47 49 50 50 49 49 49 47 43 39 36 35 36 37 38 39 40 40 40 39 36 33 30 28 25 24 22 20 19 17 16 16 15 15 16 18
33 35 36 38 40 42 44 45 47 48 49 49 48 47 47 46 42 38 35 33 33 33 34 36 36 36 37 37 36 34 31 28 26 24 22 21 20 19 19 18 18 19 20 21
34 36 37 39 41 43 44 45 46 47 48 49 47 45 45 45 43 38 33 31 30 30 31 31 32 33 33 33 33 33 32 29 26 24 23 22 21 21 21 21 21 22 24 26
36 38 39 41 42 43 44 45 46 47 47 47 46 44 43 43 42 38 33 30 28 27 27 28 28 29 30 30 31 31 30 29 26 25 24 23 22 22 22 23 24 24 25 27
39 40 41 42 43 44 44 45 45 46 46 46 44 42 41 40 40 38 33 29 26 24 24 24 24 24 25 26 27 27 28 27 26 25 24 23 23 23 24 24 25 26 27 28
43 43 43 43 44 44 44 44 44 45 45 44 43 41 39 38 39 38 35 29 25 22 21 21 21 21 20 21 22 23 23 24 24 24 24 23 23 22 23 24 24 25 26 26
45 45 45 44 44 44 43 43 43 43 43 42 41 39 37 36 36 36 35 30 25 22 19 18 18 17 16 16 17 17 18 19 19 20 21 20 21 21 20 21 21 22 22 23
44 45 44 43 43 43 42 41 41 41 40 40 39 38 36 34 34 35 34 31 26 21 18 16 15 14 14 13 13 12 12 13 14 15 16 16 17 17 17 17 18 18 19 19
44 44 44 44 43 42 41 40 39 38 38 38 37 36 34 32 32 32 33 31 27 22 18 16 14 13 12 11 9 9 7 7 9 10 10 11 11 12 13 13 14 15 16 16
Wind_Direction
333 332 337 330 320 318 319 320 321 322 323 324 324 323 322 320 319 318 316 314 312 310 309 308 307 306 304 302 300 298 296 294 292 289 286 283 280 277 274 269 261 255 251 248
343 342 345 337 328 325 324 325 325 325 325 326 326 326 324 321 320 319 317 315 314 313 311 310 308 306 304 301 298 296 293 291 288 285 282 280 277 274 272 270 268 264 258 252
348 346 342 338 334 330 329 331 331 331 331 330 330 330 327 324 323 322 320 318 316 315 314 312 309 307 304 301 298 295 291 289 286 283 280 278 275 273 270 268 265 264 263 259
347 344 344 341 338 336 335 336 336 335 334 333 333 333 330 326 324 323 321 320 319 317 315 313 311 308 305 301 297 293 290 286 284 281 278 276 273 270 268 266 263 262 260 259
343 342 341 340 341 339 338 339 337 336 336 335 333 332 331 328 326 325 325 324 322 320 318 316 313 310 307 303 298 294 289 285 282 279 276 274 271 268 265 263 260 259 257 256
335 336 338 340 341 340 339 338 338 337 336 336 336 336 335 332 330 329 328 326 325 323 321 318 316 313 310 306 301 296 290 285 281 278 274 271 268 265 262 260 257 254 252 251
331 335 337 339 340 339 338 340 339 339 340 340 339 337 336 334 333 331 330 329 328 327 325 323 321 318 316 312 306 300 294 287 281 276 272 268 264 262 259 256 254 251 249 247
332 334 337 338 338 340 342 342 342 342 340 339 338 338 337 336 335 334 334 333 332 332 330 328 326 324 322 318 312 306 300 293 285 277 270 265 260 257 255 253 250 248 245 244
329 331 333 337 341 343 343 342 341 340 339 339 340 340 339 338 338 338 338 337 337 337 336 335 333 331 330 327 322 316 308 300 291 280 270 262 256 251 249 248 245 243 242 242
325 329 335 340 342 342 341 340 339 339 340 340 341 342 342 341 341 341 342 342 342 343 343 342 342 342 340 338 334 329 321 312 301 286 271 259 251 246 243 242 240 238 237 238
326 332 336 338 339 339 340 340 340 341 341 342 344 344 344 343 343 344 345 346 347 349 350 350 350 351 352 351 349 344 338 330 317 299 277 257 246 239 236 234 233 233 233 233
329 331 333 336 338 340 341 341 341 343 344 345 345 345 345 345 345 346 348 349 351 353 355 356 356 357 359 359 359 359 358 355 350 338 306 257 240 231 225 225 225 225 226 227
327 330 333 335 338 340 341 342 343 344 345 346 347 347 346 346 346 347 350 352 354 357 359 1 1 2 4 6 9 13 15 17 21 26 33 47 161 190 200 207 211 213 213 217
326 329 332 335 337 338 340 342 344 345 346 347 348 348 348 347 347 348 351 354 357 359 2 4 6 7 9 13 17 21 25 30 38 44 50 62 85 120 160 184 196 202 208 212
326 329 332 334 336 338 340 342 344 345 346 347 349 349 349 348 348 349 352 355 359 2 5 8 10 12 15 18 22 26 31 36 43 49 57 64 76 90 105 127 156 182 199 203
326 328 331 333 335 337 339 341 343 345 346 348 350 351 350 350 350 350 353 356 360 3 7 10 13 16 19 22 25 29 33 39 45 50 55 62 71 78 83 90 103 124 154 171
324 327 329 331 333 335 337 341 343 345 347 348 350 351 351 351 350 351 354 357 0 4 8 12 15 19 21 24 27 31 35 39 43 47 53 58 63 66 71 77 84 97 112 132
322 324 327 329 331 334 336 340 343 345 347 348 349 351 351 351 350 351 354 358 1 4 9 13 17 20 23 25 28 31 35 38 42 46 49 53 58 64 67 73 80 86 99 118
321 323 325 328 330 332 335 338 341 344 346 347 348 350 351 352 352 351 353 357 1 5 9 14 17 21 23 25 28 31 34 37 41 45 51 57 64 68 73 78 81 85 97 111
319 321 323 326 329 331 333 336 339 341 344 346 346 348 350 351 352 351 351 354 359 3 8 13 17 20 23 26 28 31 34 38 42 47 53 58 65 70 74 76 79 87 98 108
315 317 320 323 326 328 330 333 335 339 341 343 344 345 348 350 352 352 351 352 355 1 5 10 15 20 24 26 30 33 36 40 46 51 56 61 66 71 76 81 87 93 100 107
311 314 317 320 322 324 326 329 332 335 338 340 341 342 345 349 351 351 350 350 352 356 2 7 12 19 24 28 32 35 38 43 49 54 60 66 71 76 83 88 92 96 101 108
308 311 313 315 317 319 322 325 328 331 333 336 338 340 342 346 349 350 349 348 348 351 357 3 9 16 23 27 32 37 41 46 51 56 63 70 75 81 88 91 95 99 104 108
305 307 309 311 313 315 318 321 324 326 329 332 335 337 339 342 346 349 349 347 345 346 351 357 4 11 18 25 30 35 40 46 52 57 63 71 78 84 90 94 97 100 104 107
302 304 306 309 310 312 315 318 320 322 325 328 331 333 335 338 342 346 348 347 343 342 344 350 357 4 11 18 24 32 40 46 51 56 62 69 77 84 90 95 99 103 106 109
298 301 304 306 308 310 312 314 316 318 320 324 328 330 331 334 338 342 346 347 343 339 337 340 346 351 357 6 16 26 37 46 52 56 61 68 75 82 89 95 100 105 109 112
296 299 301 303 305 307 310 311 313 315 317 320 324 326 327 330 333 338 343 345 344 339 333 332 335 339 344 352 1 11 22 38 49 55 59 65 74 83 90 99 106 111 115 118
Height
5847 5844 5842 5839 5835 5832 5829 5824 5820 5814 5808 5801 5794 5786 5777 5768 5758 5749 5739 5728 5718 5708 5698 5689 5680 5671 5663 5655 5647 5640 5634 5629 5625 5622 5619 5617 5616 5615 5614 5615 5616 5618 5621 5626
5846 5843 5840 5837 5833 5829 5825 5820 5815 5809 5802 5795 5787 5778 5768 5758 5747 5737 5726 5714 5704 5694 5684 5675 5666 5658 5649 5641 5633 5625 5619 5613 5609 5605 5603 5601 5600 5600 5599 5600 5600 5601 5602 5605
5845 5841 5838 5835 5830 5825 5819 5814 5808 5800 5794 5785 5777 5768 5756 5744 5732 5721 5710 5700 5690 5680 5671 5661 5652 5643 5634 5625 5617 5609 5602 5596 5592 5588 5585 5584 5583 5583 5583 5584 5585 5586 5588 5590
5841 5840 5835 5833 5825 5819 5812 5806 5799 5792 5784 5774 5765 5756 5745 5732 5720 5709 5698 5687 5677 5667 5658 5648 5637 5627 5617 5608 5599 5590 5583 5578 5573 5569 5567 5565 5565 5565 5566 5568 5570 5572 5574 5576
5837 5833 5830 5826 5820 5813 5806 5799 5792 5784 5775 5766 5757 5748 5738 5723 5710 5697 5686 5675 5665 5655 5644 5633 5621 5609 5598 5587 5577 5569 5562 5556 5552 5549 5547 5546 5546 5547 5549 5551 5554 5556 5560 5563
5834 5830 5825 5822 5814 5806 5800 5793 5785 5776 5768 5758 5746 5735 5726 5712 5699 5687 5676 5665 5654 5643 5630 5617 5604 5590 5577 5565 5554 5546 5539 5534 5531 5528 5527 5527 5528 5530 5532 5535 5538 5541 5545 5549
5831 5826 5821 5815 5808 5802 5796 5789 5778 5768 5757 5746 5735 5725 5714 5702 5690 5678 5667 5656 5644 5631 5617 5602 5587 5572 5558 5544 5532 5523 5516 5511 5508 5507 5506 5508 5511 5513 5516 5519 5523 5527 5531 5535
5826 5820 5817 5810 5803 5796 5789 5779 5769 5759 5749 5740 5730 5718 5705 5693 5681 5670 5659 5647 5634 5620 5605 5588 5571 5555 5540 5525 5513 5503 5495 5490 5487 5486 5487 5490 5494 5498 5502 5506 5510 5514 5519 5523
5822 5818 5811 5804 5796 5788 5779 5771 5763 5754 5745 5734 5723 5711 5698 5686 5674 5663 5651 5638 5624 5609 5593 5576 5558 5541 5525 5510 5497 5487 5480 5474 5471 5470 5472 5475 5479 5484 5489 5493 5498 5502 5507 5512
5817 5812 5805 5798 5791 5783 5776 5768 5760 5750 5739 5728 5717 5704 5691 5679 5668 5656 5645 5631 5617 5601 5584 5567 5549 5532 5514 5499 5487 5477 5469 5464 5461 5460 5462 5464 5468 5473 5478 5483 5488 5492 5497 5502
5813 5807 5801 5795 5788 5782 5774 5765 5756 5746 5734 5722 5710 5698 5685 5673 5662 5651 5639 5625 5610 5594 5577 5559 5543 5526 5510 5495 5482 5472 5464 5459 5456 5455 5456 5458 5462 5466 5471 5475 5480 5485 5489 5494
5808 5803 5797 5791 5784 5777 5768 5759 5750 5739 5729 5717 5704 5692 5679 5668 5657 5646 5634 5621 5606 5590 5574 5557 5541 5525 5510 5495 5483 5472 5464 5459 5456 5455 5455 5457 5460 5463 5467 5471 5475 5479 5483 5488
5802 5797 5791 5785 5778 5770 5763 5754 5744 5733 5722 5711 5700 5687 5675 5664 5653 5642 5631 5618 5603 5588 5573 5557 5541 5527 5513 5499 5487 5477 5469 5463 5459 5458 5458 5459 5461 5463 5466 5470 5473 5476 5480 5483
5797 5792 5786 5780 5773 5766 5759 5750 5740 5729 5718 5707 5696 5684 5672 5660 5650 5640 5628 5616 5602 5588 5574 5559 5544 5531 5518 5505 5494 5485 5477 5471 5467 5465 5464 5464 5465 5466 5468 5470 5473 5475 5478 5480
5792 5787 5781 5775 5768 5761 5754 5745 5736 5726 5715 5704 5693 5681 5669 5658 5648 5637 5627 5616 5603 5590 5577 5563 5549 5537 5524 5513 5502 5494 5486 5481 5476 5473 5472 5471 5471 5471 5472 5473 5474 5476 5477 5479
5786 5781 5775 5770 5763 5757 5749 5741 5732 5722 5711 5700 5689 5678 5667 5655 5645 5635 5626 5616 5605 5593 5581 5568 5555 5543 5531 5521 5511 5503 5496 5490 5486 5483 5481 5479 5478 5477 5477 5477 5477 5477 5478 5479
5780 5775 5770 5765 5759 5752 5744 5736 5727 5717 5707 5696 5686 5676 5665 5654 5644 5635 5626 5616 5606 5596 5585 5573 5561 5550 5539 5529 5521 5513 5506 5500 5496 5492 5489 5487 5485 5484 5483 5482 5481 5481 5481 5482
5775 5770 5765 5759 5753 5747 5739 5731 5722 5713 5703 5693 5683 5673 5663 5653 5643 5635 5626 5617 5608 5599 5589 5579 5568 5557 5547 5538 5529 5522 5516 5510 5505 5501 5497 5494 5492 5490 5489 5487 5487 5486 5486 5486
5768 5763 5758 5753 5747 5741 5734 5726 5718 5709 5700 5690 5681 5672 5662 5652 5642 5634 5626 5618 5611 5603 5594 5584 5574 5565 5556 5547 5538 5531 5524 5519 5514 5509 5506 5503 5500 5498 5496 5495 5494 5493 5493 5494
5762 5757 5752 5746 5740 5734 5728 5721 5713 5705 5696 5688 5679 5670 5661 5651 5642 5633 5626 5618 5612 5604 5597 5589 5580 5572 5564 5556 5548 5540 5533 5528 5523 5518 5515 5512 5509 5507 5505 5503 5502 5501 5501 5502
5754 5750 5744 5739 5734 5728 5722 5715 5708 5701 5693 5685 5676 5668 5659 5650 5641 5633 5626 5619 5613 5606 5600 5593 5586 5578 5571 5564 5557 5550 5543 5537 5532 5528 5524 5521 5518 5516 5514 5513 5512 5511 5511 5512
5746 5742 5737 5732 5727 5722 5716 5709 5703 5696 5689 5681 5673 5665 5657 5649 5640 5632 5625 5619 5613 5607 5602 5596 5590 5583 5577 5571 5565 5559 5553 5547 5542 5538 5534 5531 5528 5526 5525 5524 5523 5523 5523 5524
5737 5734 5729 5725 5720 5715 5709 5703 5697 5690 5684 5677 5670 5662 5655 5647 5640 5632 5624 5618 5612 5608 5603 5598 5593 5588 5582 5577 5572 5567 5562 5557 5552 5548 5544 5541 5539 5537 5536 5535 5535 5535 5535 5537
5728 5724 5721 5717 5712 5707 5702 5697 5690 5684 5678 5672 5665 5658 5651 5644 5637 5630 5623 5617 5611 5607 5603 5599 5595 5591 5586 5582 5578 5574 5570 5566 5562 5558 5555 5552 5549 5548 5547 5547 5547 5547 5548 5549
5718 5714 5711 5708 5703 5698 5694 5689 5684 5678 5672 5666 5660 5654 5647 5641 5635 5628 5621 5615 5610 5606 5602 5599 5596 5592 5589 5585 5582 5579 5576 5573 5570 5567 5564 5561 5559 5558 5557 5557 5557 5557 5558 5559
5708 5704 5701 5698 5694 5690 5686 5682 5677 5672 5666 5661 5655 5649 5643 5637 5632 5626 5619 5613 5608 5604 5601 5598 5595 5592 5590 5587 5585 5582 5580 5578 5575 5573 5571 5569 5568 5567 5566 5566 5566 5566 5567 5568
5698 5694 5691 5688 5684 5681 5678 5674 5670 5665 5660 5655 5650 5644 5639 5634 5628 5623 5617 5611 5606 5602 5599 5596 5593 5591 5589 5587 5586 5583 5582 5580 5579 5577 5576 5575 5574 5573 5572 5572 5572 5572 5573 5574